UAE51N OMDB-KSFO

Flight info

Callsign UAE51N
Flight time N/A
Altitude 33000
Route IVURO M677 LALDO B505 PG G325 ATRIS/N0490F350 G325 PS P500 ATROL/N0488F340 P500 GERRY/N0486F350 P500 MOTMO/N0485F340 P500 FIRUZ/K0896F340 Z407 VAJEN/K0896F360 Z407 POMIR L139 MAGOL P178 TIMKA M168 BEDOR W332 EDETO M168 ARHIG T522 BEBLU N167 TINRI/K0911F370 L165 BELEG/K0900F360 L165 REBSI/K0913F380 L165 ABERI/N0485F380 DCT 85N125W 80N128W/N0484F390 75N128W 70N128W 65N127W/N0482F410 60N126W 55N125W DCT ELIDI/N0464F400 DCT KEINN/N0471F410 DCT NUTBE DCT VIXOR Q1 ELMAA DCT RBG DCT MLBEC BDEGA4
Aircraft A388/J-SADE2E3FGHIJ3J4J5M1RWXY/LB1D1

Departure

Time 2026-04-26 12:16
Airport Dubai International Airport (OMDB)

Arrival

Time N/A
Airport San Francisco International Airport (KSFO)
Time Latitude Longitude Altitude Speed Heading
2026-04-26 11:44 25.24708 55.36640 26 ft 0 kts 239°
2026-04-26 11:58 25.24713 55.36649 26 ft 3 kts 239°
2026-04-26 11:59 25.24723 55.36668 26 ft 3 kts 239°
2026-04-26 11:59 25.24735 55.36686 26 ft 3 kts 226°
2026-04-26 11:59 25.24750 55.36701 25 ft 3 kts 213°
2026-04-26 11:59 25.24767 55.36712 24 ft 3 kts 212°
2026-04-26 12:00 25.24781 55.36724 27 ft 3 kts 251°
2026-04-26 12:00 25.24781 55.36742 25 ft 3 kts 280°
2026-04-26 12:00 25.24779 55.36753 24 ft 1 kts 280°
2026-04-26 12:03 25.24781 55.36739 26 ft 3 kts 282°
2026-04-26 12:03 25.24794 55.36687 27 ft 12 kts 285°
2026-04-26 12:04 25.24840 55.36574 27 ft 20 kts 301°
2026-04-26 12:04 25.24929 55.36417 27 ft 28 kts 302°
2026-04-26 12:04 25.25039 55.36219 26 ft 29 kts 302°
2026-04-26 12:04 25.25156 55.36013 26 ft 34 kts 301°
2026-04-26 12:05 25.25287 55.35779 29 ft 31 kts 302°
2026-04-26 12:05 25.25398 55.35583 29 ft 27 kts 302°
2026-04-26 12:05 25.25500 55.35399 29 ft 25 kts 301°
2026-04-26 12:05 25.25600 55.35221 29 ft 24 kts 302°
2026-04-26 12:06 25.25691 55.35163 30 ft 15 kts 20°
2026-04-26 12:06 25.25813 55.35237 30 ft 25 kts 31°
2026-04-26 12:06 25.25870 55.35276 26 ft 0 kts 31°
2026-04-26 12:06 25.25911 55.35303 26 ft 13 kts 32°
2026-04-26 12:07 25.25936 55.35321 26 ft 0 kts 31°
2026-04-26 12:09 25.25972 55.35345 27 ft 12 kts 31°
2026-04-26 12:09 25.26022 55.35445 27 ft 20 kts 85°
2026-04-26 12:09 25.25972 55.35586 28 ft 25 kts 122°
2026-04-26 12:10 25.25865 55.35776 28 ft 26 kts 122°
2026-04-26 12:10 25.25751 55.35979 28 ft 36 kts 122°
2026-04-26 12:10 25.25605 55.36240 29 ft 44 kts 121°
2026-04-26 12:10 25.25447 55.36520 29 ft 43 kts 121°
2026-04-26 12:11 25.25302 55.36779 29 ft 43 kts 122°
2026-04-26 12:11 25.25131 55.37084 30 ft 50 kts 121°
2026-04-26 12:11 25.24971 55.37368 30 ft 38 kts 123°
2026-04-26 12:11 25.24832 55.37616 30 ft 32 kts 122°
2026-04-26 12:12 25.24745 55.37771 30 ft 22 kts 121°
2026-04-26 12:12 25.24703 55.37845 29 ft 13 kts 122°
2026-04-26 12:12 25.24641 55.37953 30 ft 21 kts 122°
2026-04-26 12:12 25.24585 55.38053 30 ft 12 kts 121°
2026-04-26 12:13 25.24522 55.38166 29 ft 3 kts 121°
2026-04-26 12:13 25.24501 55.38229 29 ft 12 kts 75°
2026-04-26 12:13 25.24530 55.38262 28 ft 7 kts 28°
2026-04-26 12:13 25.24601 55.38314 27 ft 12 kts 34°
2026-04-26 12:14 25.24638 55.38328 27 ft 2 kts 332°
2026-04-26 12:14 25.24646 55.38319 27 ft 3 kts 298°
2026-04-26 12:14 25.24648 55.38317 27 ft 0 kts 299°
2026-04-26 12:15 25.24656 55.38300 27 ft 17 kts 299°
2026-04-26 12:15 25.24832 55.37981 34 ft 81 kts 301°
2026-04-26 12:15 25.25228 55.37269 37 ft 133 kts 301°
2026-04-26 12:15 25.25774 55.36283 35 ft 166 kts 301°
2026-04-26 12:16 25.26403 55.35158 269 ft 171 kts 302°
2026-04-26 12:16 25.27038 55.34030 620 ft 178 kts 303°
2026-04-26 12:16 25.27707 55.32838 854 ft 186 kts 302°
2026-04-26 12:16 25.28396 55.31586 1108 ft 192 kts 302°
2026-04-26 12:17 25.29134 55.30358 1489 ft 191 kts 313°
2026-04-26 12:17 25.30251 55.29563 1774 ft 200 kts 341°
2026-04-26 12:17 25.31677 55.29445 1839 ft 210 kts
2026-04-26 12:17 25.33155 55.29533 1880 ft 219 kts
2026-04-26 12:18 25.34730 55.29592 2007 ft 234 kts 359°
2026-04-26 12:18 25.36395 55.29636 2352 ft 239 kts 359°
2026-04-26 12:18 25.38053 55.29679 2855 ft 238 kts 359°
2026-04-26 12:18 25.39686 55.30062 3208 ft 247 kts 24°
2026-04-26 12:19 25.41033 55.31276 3585 ft 257 kts 49°
2026-04-26 12:19 25.42149 55.32877 3762 ft 270 kts 49°
2026-04-26 12:19 25.43342 55.34539 3989 ft 279 kts 48°
2026-04-26 12:19 25.44566 55.36217 4384 ft 281 kts 48°
2026-04-26 12:20 25.45808 55.37912 4782 ft 285 kts 48°
2026-04-26 12:20 25.47059 55.39619 5266 ft 285 kts 48°
2026-04-26 12:20 25.48313 55.41332 5684 ft 288 kts 48°
2026-04-26 12:20 25.49562 55.43068 6134 ft 289 kts 49°
2026-04-26 12:21 25.50788 55.44831 6592 ft 290 kts 49°
2026-04-26 12:21 25.52007 55.46596 6968 ft 294 kts 50°
2026-04-26 12:21 25.52984 55.48596 7340 ft 301 kts 72°
2026-04-26 12:21 25.53145 55.50934 7782 ft 306 kts 98°
2026-04-26 12:22 25.52456 55.53139 8170 ft 309 kts 121°
2026-04-26 12:22 25.51240 55.55109 8603 ft 310 kts 128°
2026-04-26 12:22 25.49931 55.57009 9029 ft 312 kts 128°
2026-04-26 12:22 25.48656 55.58957 9481 ft 314 kts 126°
2026-04-26 12:23 25.47427 55.60966 9912 ft 315 kts 124°
2026-04-26 12:23 25.46229 55.63013 10219 ft 322 kts 123°
2026-04-26 12:23 25.45006 55.65143 10336 ft 335 kts 123°
2026-04-26 12:23 25.43745 55.67370 10443 ft 346 kts 121°
2026-04-26 12:24 25.42665 55.69800 10555 ft 359 kts 111°
2026-04-26 12:24 25.41932 55.72473 10764 ft 366 kts 102°
2026-04-26 12:24 25.41385 55.75225 11177 ft 367 kts 103°
2026-04-26 12:25 25.40213 55.80765 11959 ft 372 kts 104°
2026-04-26 12:25 25.39614 55.83555 12378 ft 374 kts 104°
2026-04-26 12:25 25.39012 55.86361 12781 ft 376 kts 104°
2026-04-26 12:25 25.38406 55.89191 13053 ft 382 kts 104°
2026-04-26 12:26 25.37791 55.92062 13414 ft 384 kts 104°
2026-04-26 12:26 25.37177 55.94929 13950 ft 381 kts 104°
2026-04-26 12:26 25.36565 55.97789 14256 ft 385 kts 104°
2026-04-26 12:26 25.35941 56.00699 14525 ft 389 kts 104°
2026-04-26 12:27 25.35316 56.03611 14985 ft 388 kts 104°
2026-04-26 12:27 25.34692 56.06515 15355 ft 390 kts 104°
2026-04-26 12:27 25.34059 56.09459 15564 ft 396 kts 104°
2026-04-26 12:27 25.33420 56.12423 16002 ft 395 kts 104°
2026-04-26 12:28 25.32816 56.15384 16366 ft 397 kts 100°
2026-04-26 12:28 25.32510 56.18430 16607 ft 402 kts 95°
2026-04-26 12:28 25.32273 56.21516 17008 ft 402 kts 95°
2026-04-26 12:28 25.32022 56.24589 17417 ft 402 kts 96°
2026-04-26 12:29 25.31764 56.27693 17625 ft 408 kts 96°
2026-04-26 12:29 25.31503 56.30804 18068 ft 407 kts 96°
2026-04-26 12:29 25.30982 56.37018 18684 ft 409 kts 96°
2026-04-26 12:30 25.30743 56.40162 18943 ft 411 kts 92°
2026-04-26 12:30 25.30658 56.43331 19185 ft 413 kts 92°
2026-04-26 12:30 25.30570 56.46510 19457 ft 415 kts 92°
2026-04-26 12:31 25.30381 56.52925 19968 ft 420 kts 93°
2026-04-26 12:31 25.30282 56.56154 20224 ft 421 kts 94°
2026-04-26 12:31 25.29949 56.59368 20459 ft 422 kts 103°
2026-04-26 12:31 25.29212 56.62450 20706 ft 422 kts 111°
2026-04-26 12:32 25.28108 56.65460 20950 ft 423 kts 115°
2026-04-26 12:32 25.26938 56.68496 21199 ft 425 kts 115°
2026-04-26 12:32 25.24653 56.74539 21684 ft 429 kts 115°
2026-04-26 12:33 25.23502 56.77585 21939 ft 430 kts 115°
2026-04-26 12:33 25.22345 56.80640 22179 ft 432 kts 115°
2026-04-26 12:33 25.21180 56.83712 22434 ft 434 kts 115°
2026-04-26 12:33 25.20008 56.86795 22631 ft 437 kts 115°
2026-04-26 12:34 25.18845 56.89851 22877 ft 439 kts 115°
2026-04-26 12:34 25.17645 56.93005 23122 ft 441 kts 116°
2026-04-26 12:34 25.16456 56.96127 23359 ft 442 kts 116°
2026-04-26 12:34 25.15278 56.99217 23552 ft 444 kts 116°
2026-04-26 12:35 25.14078 57.02361 23808 ft 444 kts 116°
2026-04-26 12:35 25.12876 57.05510 23987 ft 446 kts 115°
2026-04-26 12:35 25.11668 57.08671 24185 ft 448 kts 115°
2026-04-26 12:35 25.10457 57.11838 24391 ft 450 kts 115°
2026-04-26 12:36 25.09237 57.15026 24554 ft 452 kts 115°
2026-04-26 12:36 25.08013 57.18225 24756 ft 453 kts 115°
2026-04-26 12:36 25.06787 57.21423 24963 ft 455 kts 115°
2026-04-26 12:36 25.05549 57.24651 25144 ft 456 kts 115°
2026-04-26 12:37 25.04312 57.27875 25347 ft 458 kts 115°
2026-04-26 12:37 25.03066 57.31120 25533 ft 460 kts 115°
2026-04-26 12:37 25.01819 57.34362 25732 ft 461 kts 115°
2026-04-26 12:37 25.00562 57.37630 25945 ft 463 kts 115°
2026-04-26 12:38 24.99304 57.40898 26126 ft 465 kts 115°
2026-04-26 12:38 24.98040 57.44179 26425 ft 465 kts 115°
2026-04-26 12:38 24.97184 57.46400 26560 ft 466 kts 115°
2026-04-26 12:38 24.95934 57.49640 26769 ft 468 kts 115°
2026-04-26 12:39 24.94638 57.52997 27003 ft 470 kts 115°
2026-04-26 12:39 24.93357 57.56312 27234 ft 472 kts 115°
2026-04-26 12:39 24.92085 57.59602 27470 ft 473 kts 115°
2026-04-26 12:39 24.90790 57.62948 27698 ft 475 kts 115°
2026-04-26 12:40 24.89492 57.66298 27951 ft 477 kts 115°
2026-04-26 12:40 24.88187 57.69666 28209 ft 479 kts 115°
2026-04-26 12:40 24.86877 57.73043 28460 ft 481 kts 115°
2026-04-26 12:40 24.85560 57.76436 28721 ft 483 kts 115°
2026-04-26 12:41 24.84283 57.79865 28936 ft 486 kts 110°
2026-04-26 12:41 24.83357 57.83450 29198 ft 489 kts 102°
2026-04-26 12:41 24.82843 57.87147 29540 ft 489 kts 95°
2026-04-26 12:41 24.82567 57.90880 29755 ft 492 kts 95°
2026-04-26 12:42 24.82274 57.94630 30004 ft 493 kts 95°
2026-04-26 12:42 24.81969 57.98402 30240 ft 495 kts 95°
2026-04-26 12:42 24.81660 58.02179 30427 ft 497 kts 95°
2026-04-26 12:42 24.81350 58.05980 30633 ft 500 kts 95°
2026-04-26 12:43 24.81038 58.09795 30839 ft 502 kts 95°
2026-04-26 12:43 24.80724 58.13622 31042 ft 504 kts 94°
2026-04-26 12:43 24.80407 58.17485 31242 ft 506 kts 94°
2026-04-26 12:43 24.80089 58.21347 31453 ft 508 kts 94°
2026-04-26 12:44 24.79769 58.25223 31680 ft 509 kts 94°
2026-04-26 12:44 24.79447 58.29111 31856 ft 512 kts 94°
2026-04-26 12:44 24.79122 58.33022 32056 ft 514 kts 94°
2026-04-26 12:44 24.78795 58.36941 32252 ft 516 kts 94°
2026-04-26 12:45 24.78466 58.40880 32441 ft 518 kts 93°
2026-04-26 12:45 24.78134 58.44836 32623 ft 520 kts 93°
2026-04-26 12:45 24.77800 58.48807 32785 ft 523 kts 93°
2026-04-26 12:46 24.77119 58.56874 32782 ft 536 kts 93°
2026-04-26 12:46 24.76418 58.65107 32779 ft 541 kts 93°
2026-04-26 12:47 24.75709 58.73353 32775 ft 541 kts 93°
2026-04-26 12:47 24.74998 58.81596 32772 ft 541 kts 93°
2026-04-26 12:48 24.74287 58.89785 32779 ft 541 kts 93°
2026-04-26 12:48 24.73567 58.98019 32776 ft 541 kts 93°
2026-04-26 12:49 24.72843 59.06257 32793 ft 541 kts 93°
2026-04-26 12:49 24.72116 59.14484 32784 ft 540 kts 94°
2026-04-26 12:50 24.71385 59.22696 32773 ft 539 kts 94°
2026-04-26 12:50 24.70652 59.30892 32768 ft 539 kts 94°
2026-04-26 12:51 24.69916 59.39088 32780 ft 537 kts 94°
2026-04-26 12:51 24.69176 59.47258 32770 ft 536 kts 94°
2026-04-26 12:52 24.68432 59.55410 32761 ft 535 kts 94°
2026-04-26 12:52 24.67688 59.63547 32770 ft 534 kts 94°
2026-04-26 12:53 24.66939 59.71672 32761 ft 533 kts 94°
2026-04-26 12:53 24.66188 59.79766 32753 ft 532 kts 94°
2026-04-26 12:54 24.65433 59.87860 32751 ft 532 kts 94°
2026-04-26 12:54 24.64675 59.95945 32761 ft 531 kts 94°
2026-04-26 12:55 24.63913 60.04014 32757 ft 531 kts 94°
2026-04-26 12:55 24.63147 60.12086 32748 ft 530 kts 94°
2026-04-26 12:56 24.62378 60.20139 32764 ft 530 kts 95°
2026-04-26 12:56 24.61607 60.28173 32763 ft 530 kts 95°
2026-04-26 12:57 24.60828 60.36241 32757 ft 529 kts 95°
2026-04-26 12:57 24.60047 60.44281 32757 ft 529 kts 94°
2026-04-26 12:58 24.58870 60.56324 32756 ft 528 kts 95°
2026-04-26 12:58 24.58252 60.64352 32756 ft 527 kts 88°
2026-04-26 12:59 24.58286 60.72340 32752 ft 526 kts 88°
2026-04-26 12:59 24.58292 60.80375 32764 ft 526 kts 89°
2026-04-26 13:00 24.58289 60.88413 32760 ft 526 kts 89°
2026-04-26 13:00 24.58281 60.96451 32758 ft 526 kts 89°
2026-04-26 13:01 24.58270 61.04474 32759 ft 526 kts 89°
2026-04-26 13:01 24.58256 61.12499 32765 ft 525 kts 90°
2026-04-26 13:02 24.58236 61.20520 32760 ft 524 kts 90°
2026-04-26 13:02 24.58257 61.28520 32751 ft 524 kts 86°
2026-04-26 13:03 24.59449 61.36383 32756 ft 521 kts 72°
2026-04-26 13:03 24.61973 61.43830 32750 ft 520 kts 67°
2026-04-26 13:04 24.64620 61.51229 32748 ft 520 kts 68°
2026-04-26 13:04 24.67256 61.58628 32748 ft 520 kts 68°
2026-04-26 13:05 24.69896 61.66038 32752 ft 520 kts 68°
2026-04-26 13:05 24.72534 61.73451 32748 ft 520 kts 68°
2026-04-26 13:06 24.75167 61.80861 32746 ft 520 kts 68°
2026-04-26 13:06 24.77798 61.88282 32747 ft 520 kts 68°
2026-04-26 13:07 24.80424 61.95701 32758 ft 520 kts 68°
2026-04-26 13:07 24.83047 62.03125 32756 ft 520 kts 68°
2026-04-26 13:08 24.85662 62.10539 32755 ft 519 kts 68°
2026-04-26 13:08 24.88273 62.17957 32750 ft 519 kts 68°
2026-04-26 13:09 24.90875 62.25362 32764 ft 518 kts 68°
2026-04-26 13:09 24.93466 62.32748 32753 ft 517 kts 68°
2026-04-26 13:10 24.96059 62.40155 32749 ft 516 kts 68°
2026-04-26 13:10 24.98639 62.47537 32743 ft 516 kts 68°
2026-04-26 13:11 25.01213 62.54918 32723 ft 516 kts 68°
2026-04-26 13:11 25.03766 62.62250 32731 ft 516 kts 68°
2026-04-26 13:12 25.06356 62.69700 32733 ft 517 kts 68°
2026-04-26 13:12 25.08926 62.77109 32744 ft 517 kts 68°
2026-04-26 13:13 25.11496 62.84532 32731 ft 519 kts 68°
2026-04-26 13:13 25.14071 62.91984 32740 ft 521 kts 68°
2026-04-26 13:14 25.16634 62.99412 32750 ft 522 kts 68°
2026-04-26 13:14 25.19214 63.06906 32764 ft 523 kts 68°
2026-04-26 13:15 25.21798 63.14423 32768 ft 524 kts 68°
2026-04-26 13:15 25.23958 63.20721 32767 ft 524 kts 68°
2026-04-26 13:16 25.27081 63.29386 32761 ft 522 kts 60°
2026-04-26 13:16 25.29052 63.32747 32762 ft 518 kts 49°
2026-04-26 13:16 25.31526 63.35616 32752 ft 515 kts 38°
2026-04-26 13:17 25.37623 63.39587 32751 ft 508 kts 19°
2026-04-26 13:17 25.40932 63.40946 32744 ft 507 kts 18°
2026-04-26 13:18 25.50809 63.45187 32759 ft 508 kts 20°
2026-04-26 13:19 25.60600 63.49765 32755 ft 510 kts 20°
2026-04-26 13:19 25.67133 63.52841 32766 ft 511 kts 20°
2026-04-26 13:20 25.73659 63.55915 32768 ft 511 kts 20°
2026-04-26 13:20 25.80224 63.59010 32774 ft 512 kts 20°
2026-04-26 13:21 25.86776 63.62102 32784 ft 512 kts 20°
2026-04-26 13:21 25.93335 63.65202 32789 ft 512 kts 20°
2026-04-26 13:22 25.99878 63.68297 32792 ft 512 kts 20°
2026-04-26 13:22 26.06395 63.71375 32790 ft 511 kts 20°
2026-04-26 13:23 26.12947 63.74469 32793 ft 511 kts 20°
2026-04-26 13:23 26.19493 63.77564 32791 ft 511 kts 20°
2026-04-26 13:24 26.26037 63.80662 32788 ft 511 kts 20°
2026-04-26 13:24 26.32573 63.83761 32786 ft 511 kts 20°
2026-04-26 13:25 26.39114 63.86866 32790 ft 510 kts 20°
2026-04-26 13:25 26.44587 63.89467 32768 ft 511 kts 21°
2026-04-26 13:26 26.51090 63.92561 32777 ft 512 kts 21°
2026-04-26 13:26 26.57691 63.95706 32788 ft 513 kts 21°
2026-04-26 13:27 26.64221 63.98821 32800 ft 514 kts 21°
2026-04-26 13:27 26.70796 64.01961 32802 ft 514 kts 21°
2026-04-26 13:28 26.77384 64.05111 32791 ft 516 kts 21°
2026-04-26 13:28 26.84002 64.08280 32795 ft 517 kts 21°
2026-04-26 13:29 26.90621 64.11472 32803 ft 519 kts 23°
2026-04-26 13:29 26.96763 64.15757 32800 ft 524 kts 37°
2026-04-26 13:30 27.02024 64.21425 32801 ft 526 kts 44°
2026-04-26 13:30 27.07150 64.27277 32819 ft 525 kts 44°
2026-04-26 13:31 27.12269 64.33127 32813 ft 525 kts 44°
2026-04-26 13:31 27.17380 64.38991 32807 ft 525 kts 44°
2026-04-26 13:32 27.22480 64.44853 32805 ft 525 kts 44°
2026-04-26 13:32 27.27580 64.50724 32797 ft 524 kts 44°
2026-04-26 13:33 27.32671 64.56593 32790 ft 524 kts 44°
2026-04-26 13:33 27.37757 64.62463 32798 ft 524 kts 44°
2026-04-26 13:34 27.42844 64.68345 32756 ft 525 kts 44°
2026-04-26 13:34 27.47919 64.74220 32773 ft 526 kts 44°